Weather reports worldwide

Advertisment
Monroe, nc, United States of America (2072145): temperature & dewpoint: 28.06.2020 17:00:00 - 04.07.2020 17:00:00 (EDT)Monroe, nc, United States of America (2072145): wind speed: 28.06.2020 17:00:00 - 04.07.2020 17:00:00 (EDT)Monroe, nc, United States of America (2072145): wind direction: 28.06.2020 17:00:00 - 04.07.2020 17:00:00 (EDT)Monroe, nc, United States of America (2072145): reduced air pressure: 28.06.2020 17:00:00 - 04.07.2020 17:00:00 (EDT)Monroe, nc, United States of America (2072145): visibility: 28.06.2020 17:00:00 - 04.07.2020 17:00:00 (EDT)Monroe, nc, United States of America (2072145): precipitation: 28.06.2020 17:00:00 - 04.07.2020 17:00:00 (EDT)
Date & Time tt [°C] td [°C] ff [km/h] ff [kn] dd ppp [hPa] vv [km] rr [mm]
04.07.2020 17:00:00 33,3 18,9 0 0 N 1012,1 16 -
04.07.2020 16:00:00 33,9 18,3 13 7 WSW 1012,8 16 -
04.07.2020 15:00:00 33,3 17,8 0 0 N 1013,3 16 -
04.07.2020 14:00:00 32,8 18,3 8 4 - 1013,6 16 -
04.07.2020 13:00:00 30,6 20,6 5 3 S 1014,3 16 -
04.07.2020 12:00:00 31,7 18,3 5 3 - 1014,3 16 -
04.07.2020 11:00:00 31,7 19,4 5 3 - 1014,3 16 -
04.07.2020 10:00:00 29,4 20,0 5 3 WSW 1014,2 16 -
04.07.2020 09:00:00 26,1 20,6 5 3 WSW 1014,4 16 -
04.07.2020 08:00:00 22,2 20,0 8 4 SW 1013,9 16 -
04.07.2020 07:00:00 20,6 18,9 0 0 N 1013,5 16 -
04.07.2020 06:00:00 19,4 18,9 0 0 N 1013,7 16 -
04.07.2020 05:00:00 21,7 18,9 0 0 N 1013,2 16 -
04.07.2020 04:00:00 20,6 19,4 5 3 WSW 1013,7 16 -
04.07.2020 03:00:00 21,1 18,9 0 0 N 1013,7 16 -
04.07.2020 02:00:00 22,2 18,3 0 0 N 1013,7 16 -
04.07.2020 01:00:00 21,7 18,9 0 0 N 1013,8 16 -
04.07.2020 00:00:00 22,8 18,3 0 0 N 1013,6 16 -
03.07.2020 23:00:00 23,3 18,3 0 0 N 1013,8 16 -
03.07.2020 22:00:00 23,9 18,9 0 0 N 1013,4 16 -
03.07.2020 21:00:00 26,1 18,3 5 3 E 1012,8 16 -
03.07.2020 20:00:00 30,0 17,8 0 0 N 1012,6 16 -
03.07.2020 19:00:00 32,2 17,2 5 3 ENE 1012,4 16 -
03.07.2020 18:00:00 32,8 16,7 5 3 - 1012,2 16 -
03.07.2020 17:00:00 32,8 16,7 8 4 ENE 1012,7 16 -
03.07.2020 16:00:00 33,3 17,8 11 6 ENE 1013,5 16 -
03.07.2020 15:00:00 32,2 16,7 - - - 1014,0 16 -
03.07.2020 14:00:00 32,8 17,2 15 8 NE 1014,4 16 -
03.07.2020 13:00:00 32,2 17,8 9 5 - 1015,0 16 -
03.07.2020 12:00:00 31,7 18,3 8 4 - 1015,2 16 -
03.07.2020 11:00:00 30,0 18,9 8 4 N 1015,2 16 -
03.07.2020 10:00:00 29,4 20,0 0 0 N 1015,1 16 -
03.07.2020 09:00:00 27,2 20,0 0 0 N 1015,1 16 -
03.07.2020 08:00:00 23,9 20,6 0 0 N 1014,9 16 -
03.07.2020 07:00:00 19,4 18,9 0 0 N 1014,5 13 -
03.07.2020 06:00:00 20,0 18,9 0 0 N 1014,0 15 -
03.07.2020 05:00:00 20,0 19,4 0 0 N 1013,8 15 -
03.07.2020 04:00:00 21,1 19,4 0 0 N 1013,8 16 -
03.07.2020 03:00:00 21,1 20,0 5 3 NE 1013,7 16 -
03.07.2020 02:00:00 21,7 20,0 0 0 N 1014,2 16 -
03.07.2020 01:00:00 22,2 20,6 0 0 N 1014,3 16 -
03.07.2020 00:00:00 23,3 20,0 0 0 N 1014,1 16 -
02.07.2020 23:00:00 23,3 20,6 0 0 N 1014,0 16 -
02.07.2020 22:00:00 25,0 20,6 0 0 N 1013,2 16 -
02.07.2020 21:00:00 26,7 20,6 5 3 E 1012,5 16 -
02.07.2020 20:00:00 29,4 20,0 8 4 ENE 1012,2 16 -
02.07.2020 19:00:00 30,6 19,4 9 5 NE 1011,6 16 -
02.07.2020 18:00:00 31,7 19,4 16 9 NNE 1011,7 16 -
02.07.2020 17:00:00 32,2 20,6 21 11 NE 1012,1 16 -
02.07.2020 16:00:00 31,1 20,6 9 5 - 1011,8 16 -
02.07.2020 15:00:00 31,7 21,1 18 10 NE 1012,2 16 -
02.07.2020 14:00:00 30,6 21,1 15 8 ENE 1012,6 16 -
02.07.2020 13:00:00 30,0 21,7 16 9 N 1012,8 16 -
02.07.2020 12:00:00 29,4 22,2 13 7 N 1012,9 16 -
02.07.2020 11:00:00 27,8 21,7 13 7 NNE 1013,1 16 -
02.07.2020 10:00:00 26,1 21,7 13 7 NNE 1012,9 16 -
02.07.2020 09:00:00 24,4 21,7 15 8 NNE 1012,5 16 -
02.07.2020 08:00:00 22,8 21,7 16 9 NNE 1011,9 16 -
02.07.2020 07:00:00 22,2 21,1 16 9 NNE 1011,5 13 -
02.07.2020 06:00:00 21,1 20,6 5 3 N 1010,8 15 -
02.07.2020 05:00:00 21,7 21,1 5 3 N 1010,6 16 -
02.07.2020 04:00:00 22,2 21,7 5 3 W 1010,8 16 -
02.07.2020 03:00:00 21,1 20,6 5 3 W 1010,6 16 -
02.07.2020 02:00:00 21,7 21,1 5 3 WNW 1010,6 16 -
02.07.2020 01:00:00 22,2 21,1 5 3 WNW 1011,0 16 -
02.07.2020 00:00:00 21,7 21,1 8 4 SW 1011,3 16 -
01.07.2020 23:00:00 22,2 21,1 0 0 N 1011,2 16 -
01.07.2020 22:00:00 23,3 21,1 5 3 SSW 1011,0 16 -
01.07.2020 21:00:00 24,4 21,7 0 0 N 1010,6 16 -
01.07.2020 20:00:00 26,1 22,2 15 8 SW 1010,2 16 -
01.07.2020 19:00:00 27,8 22,2 21 11 SSW 1010,2 16 -
01.07.2020 18:00:00 28,3 23,9 0 0 N 1009,9 16 0,0
01.07.2020 17:00:00 27,8 23,3 0 0 N 1010,4 16 0,8
01.07.2020 16:00:00 24,4 22,2 8 4 ENE 1010,6 6 0,8
01.07.2020 15:00:00 30,0 21,7 13 7 SSW 1010,8 16 -
01.07.2020 14:00:00 30,0 20,6 - - - 1011,7 16 -
01.07.2020 13:00:00 30,0 20,6 0 0 N 1012,4 16 -
01.07.2020 12:00:00 28,3 20,6 13 7 NE 1012,8 16 -
01.07.2020 11:00:00 26,1 21,1 0 0 N 1012,9 16 -
01.07.2020 10:00:00 24,4 21,1 5 3 NE 1012,8 16 0,0
01.07.2020 09:00:00 23,9 21,1 0 0 N 1012,7 16 0,0
01.07.2020 08:00:00 22,2 21,1 0 0 N 1012,3 16 0,0
01.07.2020 07:00:00 21,1 20,6 5 3 WSW 1012,1 16 0,0
01.07.2020 06:00:00 22,2 20,6 0 0 N 1011,6 16 0,0
01.07.2020 05:00:00 21,7 20,6 0 0 N 1011,3 16 -
01.07.2020 04:00:00 21,7 20,6 8 4 WSW 1010,9 16 -
01.07.2020 03:00:00 21,1 20,0 8 4 SW 1011,4 16 -
01.07.2020 02:00:00 21,7 20,0 0 0 N 1011,7 16 -
01.07.2020 01:00:00 21,7 20,0 0 0 N 1012,4 16 -
01.07.2020 00:00:00 21,7 20,6 0 0 N 1013,0 16 -
30.06.2020 23:00:00 22,2 20,6 0 0 N 1013,0 16 -
30.06.2020 22:00:00 22,8 20,6 0 0 N 1013,1 16 -
30.06.2020 21:00:00 23,3 20,6 0 0 N 1012,4 16 0,0
30.06.2020 20:00:00 - - - - - - - -
30.06.2020 19:00:00 27,8 20,0 16 9 N 1011,9 16 -
30.06.2020 18:00:00 31,1 20,6 8 4 - 1011,3 16 -
30.06.2020 17:00:00 31,1 20,6 8 4 - 1011,2 16 -
30.06.2020 16:00:00 31,1 20,0 - - - 1011,7 16 -
30.06.2020 15:00:00 31,1 20,6 - - - 1012,6 16 -
30.06.2020 14:00:00 30,0 20,6 9 5 NW 1013,5 16 -
30.06.2020 13:00:00 29,4 20,6 0 0 N 1013,9 16 -
30.06.2020 12:00:00 28,9 20,0 13 7 NE 1014,0 16 -
30.06.2020 11:00:00 29,4 20,6 11 6 NE 1013,9 16 -
30.06.2020 10:00:00 28,9 20,6 11 6 NNE 1013,8 16 -
30.06.2020 09:00:00 27,8 21,1 11 6 NNE 1013,6 16 -
30.06.2020 08:00:00 24,4 22,2 0 0 N 1013,7 16 -
30.06.2020 07:00:00 21,7 20,6 0 0 N 1013,3 16 -
30.06.2020 06:00:00 21,1 20,6 5 3 WSW 1012,8 16 -
30.06.2020 05:00:00 22,2 20,6 0 0 N 1011,9 16 -
30.06.2020 04:00:00 22,8 21,1 5 3 WNW 1012,2 16 -
30.06.2020 03:00:00 22,2 21,1 0 0 N 1012,0 16 -
30.06.2020 02:00:00 22,2 21,1 0 0 N 1012,6 16 -
30.06.2020 01:00:00 22,8 21,7 0 0 N 1013,3 16 -
30.06.2020 00:00:00 22,8 21,7 11 6 WSW 1013,8 16 -
29.06.2020 23:00:00 22,8 21,7 0 0 N 1013,9 16 -
29.06.2020 22:00:00 24,4 21,1 5 3 E 1013,7 16 -
29.06.2020 21:00:00 25,6 21,7 16 9 NNE 1013,4 16 0,0
29.06.2020 20:00:00 24,4 19,4 9 5 NNE 1012,1 15 0,3
29.06.2020 19:00:00 29,4 21,7 0 0 N 1011,8 16 -
29.06.2020 18:00:00 32,2 20,6 9 5 W 1011,9 16 -
29.06.2020 17:00:00 32,8 21,1 18 10 W 1012,5 16 -
29.06.2020 16:00:00 31,7 21,1 13 7 W 1013,0 16 -
29.06.2020 15:00:00 32,8 20,0 16 9 NW 1013,5 16 -
29.06.2020 14:00:00 32,2 20,0 13 7 NNW 1013,7 16 -
29.06.2020 13:00:00 31,1 19,4 9 5 - 1013,7 16 -
29.06.2020 12:00:00 30,6 20,6 16 9 NNW 1014,2 16 -
29.06.2020 11:00:00 28,9 21,1 13 7 N 1014,3 16 -
29.06.2020 10:00:00 26,7 21,7 11 6 NW 1014,7 16 -
29.06.2020 09:00:00 25,0 21,7 8 4 W 1014,3 16 -
29.06.2020 08:00:00 23,3 21,7 13 7 WSW 1014,1 16 -
29.06.2020 07:00:00 21,7 21,1 9 5 W 1013,2 16 -
29.06.2020 06:00:00 21,1 20,6 8 4 SW 1012,5 16 0,3
29.06.2020 05:00:00 21,7 21,1 0 0 N 1012,3 13 0,0
29.06.2020 04:00:00 21,7 20,6 8 4 NNW 1012,0 16 0,0
29.06.2020 03:00:00 21,1 20,6 0 0 N 1012,1 16 0,3
29.06.2020 02:00:00 21,1 20,6 8 4 W 1012,6 16 0,0
29.06.2020 01:00:00 21,1 20,6 9 5 WSW 1013,1 16 -
29.06.2020 00:00:00 21,1 20,6 11 6 WSW 1013,2 16 -
28.06.2020 23:00:00 20,6 20,0 5 3 WSW 1012,7 16 -
28.06.2020 22:00:00 21,1 20,0 8 4 WSW 1012,6 16 -
28.06.2020 21:00:00 21,7 21,1 9 5 SW 1012,2 16 0,5
28.06.2020 20:00:00 22,2 21,7 9 5 SSW 1011,8 16 0,8
28.06.2020 19:00:00 22,8 21,7 13 7 WSW 1012,6 16 0,5
28.06.2020 18:00:00 22,8 21,1 5 3 W 1012,4 16 -
28.06.2020 17:00:00 31,1 20,6 13 7 W 1010,6 16 0,0

tt = temperature
td = dewpoint
ff = wind speed
dd = wind direction
ppp = reduced air pressure
vv = visibility
rr = precipitation

Next stations